Location: Lavington
(51.2833°N, 1.9833°W)
Time: 17:46:14
(UTC+00:00)

STARLINK-1239 - Pass Details

Date: 01 June 2020
Orbit: 548 x 551 km, 53.0° (Epoch: 04 July)

Event Time Altitude Azimuth Distance (km) Brightness Sun altitude
Rises 22:35:49 0° 269° (W) 2,718 7.4 -13.9°
Reaches altitude 10° 22:38:03 10° 272° (W) 1,825 6.6 -14.0°
Maximum altitude 22:42:12 69° 356° (N) 593 3.9 -14.2°
Drops below altitude 10° 22:46:20 10° 80° (E) 1,828 6.2 -14.4°
Sets 22:48:35 0° 83° (E) 2,723 7.0 -14.6°
